TimeHST,TemperatureF,Dew PointF,Humidity,Sea Level PressureIn,VisibilityMPH,Wind Direction,Wind SpeedMPH,Gust SpeedMPH,PrecipitationIn,Events,Conditions,WindDirDegrees,DateUTC
12:53 AM,73.0,64.0,73,30.12,10.0,NE,12.7,-,N/A,,Scattered Clouds,50,2012-12-13 10:53:00
1:53 AM,73.0,64.9,76,30.12,10.0,NE,16.1,25.3,N/A,,Scattered Clouds,50,2012-12-13 11:53:00
2:53 AM,73.9,64.0,71,30.10,10.0,ENE,17.3,25.3,N/A,,Mostly Cloudy,60,2012-12-13 12:53:00
3:53 AM,72.0,64.9,78,30.11,10.0,ENE,13.8,-,0.00,Rain,Light Rain,60,2012-12-13 13:53:00
4:53 AM,72.0,64.9,78,30.11,10.0,NE,16.1,29.9,0.00,Rain,Light Rain,50,2012-12-13 14:53:00
5:53 AM,71.1,64.9,81,30.10,10.0,ENE,16.1,26.5,0.00,,Scattered Clouds,60,2012-12-13 15:53:00
6:53 AM,72.0,64.0,76,30.11,10.0,ENE,11.5,-,0.00,,Mostly Cloudy,60,2012-12-13 16:53:00
7:53 AM,73.9,64.9,73,30.12,10.0,ENE,19.6,25.3,N/A,,Scattered Clouds,60,2012-12-13 17:53:00
8:53 AM,75.9,64.0,67,30.13,10.0,ENE,20.7,26.5,N/A,,Scattered Clouds,60,2012-12-13 18:53:00
9:53 AM,75.0,64.9,71,30.14,10.0,ENE,18.4,26.5,0.00,Rain,Light Rain,70,2012-12-13 19:53:00
10:53 AM,75.9,64.0,67,30.12,10.0,ENE,19.6,32.2,N/A,,Mostly Cloudy,70,2012-12-13 20:53:00
11:53 AM,78.1,64.9,64,30.10,10.0,ENE,20.7,27.6,0.00,,Scattered Clouds,60,2012-12-13 21:53:00
12:53 PM,80.1,64.0,58,30.08,10.0,ENE,21.9,32.2,0.00,,Mostly Cloudy,70,2012-12-13 22:53:00
2:53 PM,80.1,64.0,58,30.06,10.0,ENE,21.9,29.9,N/A,,Mostly Cloudy,70,2012-12-14 00:53:00
3:53 PM,79.0,64.0,60,30.06,10.0,ENE,17.3,26.5,N/A,,Mostly Cloudy,60,2012-12-14 01:53:00
4:53 PM,78.1,63.0,60,30.07,10.0,ENE,17.3,24.2,N/A,,Scattered Clouds,70,2012-12-14 02:53:00
5:53 PM,75.9,63.0,64,30.09,10.0,ENE,15.0,21.9,N/A,,Scattered Clouds,60,2012-12-14 03:53:00
6:53 PM,75.0,63.0,66,30.11,10.0,ENE,17.3,26.5,N/A,,Partly Cloudy,60,2012-12-14 04:53:00
7:53 PM,75.0,63.0,66,30.13,10.0,NE,17.3,21.9,N/A,,Mostly Cloudy,50,2012-12-14 05:53:00
8:53 PM,75.0,64.9,71,30.13,10.0,ENE,18.4,26.5,N/A,,Scattered Clouds,60,2012-12-14 06:53:00
9:53 PM,73.9,66.0,76,30.14,10.0,NE,18.4,26.5,0.00,,Mostly Cloudy,50,2012-12-14 07:53:00
10:53 PM,73.9,64.9,73,30.14,10.0,ENE,17.3,31.1,0.00,,Scattered Clouds,70,2012-12-14 08:53:00
11:53 PM,72.0,66.9,84,30.14,10.0,East,17.3,21.9,0.00,Rain,Light Rain,80,2012-12-14 09:53:00